Location: *
(2.5500°S, 65.9667°W)
Time: 06:43:50
(UTC+00:00)

Tiros 1 despin weight - Pass Details

Date: 21 April 2024
Orbit: 578 x 621 km, 48.2° (Epoch: 25 May)

Event Time Altitude Azimuth Distance (km) Brightness Sun altitude
Rises 12:56:43 0° 211° (SSW) 2,786 ? 36.8°
Reaches altitude 10° 12:59:03 10° 205° (SSW) 1,885 ? 37.4°
Maximum altitude 13:03:14 50° 129° (SE) 738 ? 38.4°
Drops below altitude 10° 13:07:25 10° 53° (NE) 1,888 ? 39.4°
Sets 13:09:44 0° 48° (NE) 2,789 ? 39.9°
